OK1UDZ-5 Weather Reports


time (UTC)temp
F
wind
direction
speed
knots
gust
knots
rain 1hr
in
rain 24hr
in
rain mn
in
humidity
%
barometer
mb
20260504223021 0 180 0.0 0.0 0.00 0.00 0.00 1010.7
20260504222219 0 135 0.0 0.0 0.00 0.00 0.00 1010.7
20260504221417 0 135 0.0 0.0 0.00 0.00 0.00 1010.8
20260504220611 0 158 0.0 0.0 0.00 0.00 0.00 1010.9
20260504215809 0 158 0.0 0.0 0.00 0.00 0.00 1011.0
20260504215006 0 158 0.0 0.0 0.00 0.00 0.00 1011.0
20260504214204 0 135 0.0 0.0 0.00 0.00 0.00 1011.1
20260504213354 0 135 0.0 0.0 0.00 0.00 0.00 1011.1
20260504212547 0 135 0.0 0.0 0.00 0.00 0.00 1011.1
20260504211741 0 135 0.0 0.0 0.00 0.00 0.00 1011.2
20260504210933 0 135 0.0 0.0 0.00 0.00 0.00 1011.2
20260504210120 0 180 0.0 0.0 0.00 0.00 0.00 1011.3
20260504205319 0 135 0.0 0.0 0.00 0.00 0.00 1011.2
20260504204516 0 135 0.0 0.0 0.00 0.00 0.00 1011.3
20260504203710 0 135 0.0 0.0 0.00 0.00 0.00 1011.2
20260504202905 0 180 0.0 0.0 0.00 0.00 0.00 1011.2
20260504202055 0 135 0.0 0.0 0.00 0.00 0.00 1011.2
20260504201249 0 135 0.0 0.0 0.00 0.00 0.00 1011.1
20260504200438 0 135 0.0 0.0 0.00 0.00 0.00 1011.1
20260504195630 0 135 0.0 0.0 0.00 0.00 0.00 1011.1
20260504194827 0 180 0.0 0.0 0.00 0.00 0.00 1011.1
20260504194018 0 135 0.0 0.0 0.00 0.00 0.00 1011.2
20260504193215 0 135 0.0 0.0 0.00 0.00 0.00 1011.2
20260504192403 0 135 0.0 0.0 0.00 0.00 0.00 1011.2
20260504191553 0 135 0.0 0.0 0.00 0.00 0.00 1011.2
20260504190748 0 135 0.0 0.0 0.00 0.00 0.00 1011.4
20260504185935 0 135 0.0 0.0 0.00 0.00 0.00 1011.6
20260504185127 0 135 0.0 0.0 0.00 0.00 0.00 1011.6
20260504184321 0 135 0.0 0.0 0.00 0.00 0.00 1011.5
20260504183514 0 45 0.0 0.0 0.00 0.00 0.00 1011.3
20260504182708 0 45 0.0 0.0 0.00 0.00 0.00 1011.0
20260504181854 0 45 0.0 0.0 0.00 0.00 0.00 1010.8
20260504181045 0 135 0.0 0.0 0.00 0.00 0.00 1010.7
20260504180240 0 135 0.0 0.0 0.00 0.00 0.00 1010.4
20260504175434 0 135 0.0 0.0 0.00 0.00 0.00 1010.2
20260504174623 0 135 0.0 0.0 0.00 0.00 0.00 1010.0
20260504173814 0 135 0.0 0.0 0.00 0.00 0.00 1009.9
20260504173006 0 135 0.0 0.0 0.00 0.00 0.00 1009.9
20260504172202 0 180 0.0 0.0 0.00 0.00 0.00 1009.9
20260504171354 0 135 0.0 0.0 0.00 0.00 0.00 1009.8
20260504170550 0 135 0.0 0.0 0.00 0.00 0.00 1009.8
20260504160132 0 203 0.0 0.0 0.00 0.00 0.00 1009.8
20260504150507 0 180 0.0 0.0 0.00 0.00 0.00 1008.9
20260504140831 0 180 0.0 0.0 0.00 0.00 0.00 1009.3
20260504130422 0 180 0.0 0.0 0.00 0.00 0.00 1010.1
20260504110407 0 180 0.0 0.0 0.00 0.00 0.00 1011.3
20260504081558 0 158 0.0 0.0 0.00 0.00 0.00 1013.0
20260504080758 0 180 0.0 0.0 0.00 0.00 0.00 1012.7
20260504070353 0 90 0.0 0.0 0.00 0.00 0.00 1013.1
20260504050328 0 90 0.0 0.0 0.00 0.00 0.00 1013.6
20260504045529 0 180 0.0 0.0 0.00 0.00 0.00 1013.5
20260504044729 0 180 0.0 0.9 0.00 0.00 0.00 1013.4
20260504043926 0 135 0.0 0.0 0.00 0.00 0.00 1013.6
20260504043125 0 180 0.0 0.0 0.00 0.00 0.00 1013.6
20260504042325 0 135 0.0 0.0 0.00 0.00 0.00 1013.5
20260504041523 0 180 0.0 0.0 0.00 0.00 0.00 1013.5
20260504040724 0 180 0.0 0.0 0.00 0.00 0.00 1013.4
20260504035924 0 135 0.0 0.0 0.00 0.00 0.00 1013.5
20260504035124 0 180 0.0 1.7 0.00 0.00 0.00 1013.5
20260504034324 0 135 0.0 0.9 0.00 0.00 0.00 1013.6
20260504033524 0 180 0.0 0.0 0.00 0.00 0.00 1013.5
20260504032720 0 135 0.0 0.0 0.00 0.00 0.00 1013.4
20260504031920 0 135 0.0 0.0 0.00 0.00 0.00 1013.4
20260504031118 0 135 0.0 0.0 0.00 0.00 0.00 1013.3
20260504030319 0 180 0.0 0.0 0.00 0.00 0.00 1013.4
20260504025518 0 135 0.0 0.0 0.00 0.00 0.00 1013.2
20260504024717 0 135 0.0 0.0 0.00 0.00 0.00 1013.3
20260504023918 0 135 0.0 0.0 0.00 0.00 0.00 1013.3
20260504023119 0 158 0.0 0.0 0.00 0.00 0.00 1013.3
20260504022319 0 135 0.0 0.0 0.00 0.00 0.00 1013.4
20260504021520 0 113 0.0 0.0 0.00 0.00 0.00 1013.3
20260504020719 0 135 0.0 0.0 0.00 0.00 0.00 1013.4
20260504015917 0 203 0.0 0.0 0.00 0.00 0.00 1013.4
20260504015117 0 180 0.0 0.0 0.00 0.00 0.00 1013.6
20260504014314 0 135 0.0 0.0 0.00 0.00 0.00 1013.5
20260504013514 0 180 0.0 0.0 0.00 0.00 0.00 1013.5
20260504012715 0 180 0.0 0.0 0.00 0.00 0.00 1013.5
20260504011915 0 135 0.0 0.0 0.00 0.00 0.00 1013.4
20260504011112 0 180 0.0 0.0 0.00 0.00 0.00 1013.4
20260504010312 0 180 0.0 0.0 0.00 0.00 0.00 1013.5
20260504005511 0 135 0.0 0.0 0.00 0.00 0.00 1013.5
20260504004711 0 180 0.0 0.0 0.00 0.00 0.00 1013.5
20260504003911 0 135 0.0 0.0 0.00 0.00 0.00 1013.6
20260504003111 0 180 0.0 0.0 0.00 0.00 0.00 1013.7
20260504002312 0 135 0.0 0.0 0.00 0.00 0.00 1013.6
20260504001511 0 180 0.0 0.0 0.00 0.00 0.00 1013.6
20260504000711 0 180 0.0 0.0 0.00 0.00 0.00 1013.7
20260503235908 0 90 0.0 0.0 0.00 0.00 0.00 1013.7
20260503235053 0 158 0.0 0.0 0.00 0.00 0.00 1013.7
20260503234248 0 180 0.0 0.0 0.00 0.00 0.00 1013.8
20260503233439 0 135 0.0 0.0 0.00 0.00 0.00 1013.8
20260503232630 0 180 0.0 0.0 0.00 0.00 0.00 1013.8
20260503231820 0 180 0.0 0.0 0.00 0.00 0.00 1013.8
20260503231014 0 135 0.0 0.0 0.00 0.00 0.00 1013.8
20260503230210 0 180 0.0 0.0 0.00 0.00 0.00 1013.9
20260503225403 0 180 0.0 0.0 0.00 0.00 0.00 1013.9
20260503224557 0 135 0.0 0.0 0.00 0.00 0.00 1013.9
20260503223749 0 180 0.0 0.0 0.00 0.00 0.00 1013.9